Date,TemperatureHighF,TemperatureAvgF,TemperatureLowF,DewpointHighF,DewpointAvgF,DewpointLowF,HumidityHigh,HumidityAvg,HumidityLow,PressureMaxIn,PressureMinIn,WindSpeedMaxMPH,WindSpeedAvgMPH,GustSpeedMaxMPH,PrecipitationSumIn
2013-2-1,22,19,17,-100,-100,-100,0,0,100,0.00,40.00,0,-999,0,0.00
2013-2-2,33,24,16,-100,-100,-100,0,0,100,0.00,40.00,0,-999,0,0.00
2013-2-3,35,30,24,-100,-100,-100,0,0,100,0.00,40.00,0,-999,0,0.00
2013-2-4,34,26,19,-100,-100,-100,0,0,100,0.00,40.00,0,-999,0,0.00
2013-2-5,41,30,22,-100,-100,-100,0,0,100,0.00,40.00,0,-999,0,0.00
2013-2-6,34,31,27,-100,-100,-100,0,0,100,0.00,40.00,0,-999,0,0.00
2013-2-7,33,19,11,-100,-100,-100,0,0,100,0.00,40.00,0,-999,0,0.01
2013-2-8,34,23,11,-100,-100,-100,0,0,100,0.00,40.00,0,-999,0,0.00
2013-2-9,21,18,13,-100,-100,-100,0,0,100,0.00,40.00,0,-999,0,0.01
2013-2-10,16,10,4,-100,-100,-100,0,0,100,0.00,40.00,0,-999,0,0.00
2013-2-11,16,7,-1,-100,-100,-100,0,0,100,0.00,40.00,0,-999,0,0.01
2013-2-12,23,11,1,-100,-100,-100,0,0,100,0.00,40.00,0,-999,0,0.00
2013-2-13,21,17,11,-100,-100,-100,0,0,100,0.00,40.00,0,-999,0,0.00
2013-2-14,24,19,16,-100,-100,-100,0,0,100,0.00,40.00,0,-999,0,0.00
2013-2-15,16,12,10,-100,-100,-100,0,0,100,0.00,40.00,0,-999,0,0.01
2013-2-16,33,23,17,-100,-100,-100,0,0,100,0.00,40.00,0,-999,0,0.00
2013-2-17,37,29,18,-100,-100,-100,0,0,100,0.00,40.00,0,-999,0,0.00
2013-2-18,21,12,4,-100,-100,-100,0,0,100,0.00,40.00,0,-999,0,0.00
2013-2-19,33,21,6,-100,-100,-100,0,0,100,0.00,40.00,0,-999,0,0.00
2013-2-20,28,21,14,-100,-100,-100,0,0,100,0.00,40.00,0,-999,0,0.00
2013-2-21,21,17,14,-100,-100,-100,0,0,100,0.00,40.00,0,-999,0,0.01
2013-2-22,17,13,6,-100,-100,-100,0,0,100,0.00,40.00,0,-999,0,0.00
2013-2-23,27,20,9,-100,-100,-100,0,0,100,0.00,40.00,0,-999,0,0.00
2013-2-26,17,14,9,-100,-100,-100,0,0,100,0.00,40.00,0,-999,0,0.00
2013-2-27,18,8,1,-100,-100,-100,0,0,100,0.00,40.00,0,-999,0,0.00
2013-2-28,24,13,5,-100,-100,-100,0,0,100,0.00,40.00,0,-999,0,0.01